START_TIME,STEP,MOV.,E45,t_acc.,ALAR?,t_acc.,A12,t_acc.,A24,t_acc.
1980-11-13 12:00:14.850 ,4,0,0.,4.8,19456.,4.8,0.,4.8,0.,4.8
1980-11-13 12:00:19.650 ,4,0,0.,4.8,18944.,4.8,0.,4.8,0.,4.8
1980-11-13 12:00:24.450 ,4,0,0.,4.8,18432.,4.8,0.,4.8,0.,4.8
1980-11-13 12:00:29.250 ,4,0,0.,4.8,19456.,4.8,0.,4.8,0.,4.8
1980-11-13 12:00:34.050 ,4,0,0.,4.8,18944.,4.8,0.,4.8,0.,4.8
1980-11-13 12:00:38.850 ,5,0,0.,4.8,18944.,4.8,0.,4.8,0.,4.8
1980-11-13 12:00:43.650 ,5,0,0.,4.8,19456.,4.8,0.,4.8,0.,4.8
1980-11-13 12:00:48.450 ,5,0,0.,4.8,19456.,4.8,0.,4.8,0.,4.8
1980-11-13 12:00:53.250 ,5,0,0.,4.8,18944.,4.8,0.,4.8,0.,4.8
1980-11-13 12:00:58.050 ,5,0,0.,4.8,19456.,4.8,0.,4.8,0.,4.8
1980-11-13 12:01:02.850 ,5,0,0.,4.8,19456.,4.8,1.,4.8,0.,4.8
1980-11-13 12:01:07.650 ,5,0,0.,4.8,19968.,4.8,0.,4.8,0.,4.8
1980-11-13 12:01:12.450 ,5,0,0.,4.8,18944.,4.8,0.,4.8,0.,4.8
1980-11-13 12:01:17.250 ,5,0,0.,4.8,19456.,4.8,0.,4.8,0.,4.8
1980-11-13 12:01:22.050 ,5,0,0.,4.8,19968.,4.8,0.,4.8,0.,4.8
1980-11-13 12:01:26.850 ,6,0,0.,4.8,19456.,4.8,0.,4.8,0.,4.8
1980-11-13 12:01:31.650 ,6,0,0.,4.8,19456.,4.8,0.,4.8,0.,4.8
1980-11-13 12:01:36.450 ,6,0,0.,4.8,18944.,4.8,0.,4.8,0.,4.8
1980-11-13 12:01:41.250 ,6,0,0.,4.8,18432.,4.8,0.,4.8,0.,4.8
1980-11-13 12:01:46.050 ,6,0,0.,4.8,18944.,4.8,0.,4.8,0.,4.8
1980-11-13 12:01:50.850 ,6,0,0.,4.8,19456.,4.8,0.,4.8,0.,4.8
1980-11-13 12:01:55.650 ,6,0,0.,4.8,18944.,4.8,0.,4.8,0.,4.8
1980-11-13 12:02:00.450 ,6,0,0.,4.8,18944.,4.8,0.,4.8,0.,4.8
1980-11-13 12:02:05.250 ,6,0,0.,4.8,18432.,4.8,0.,4.8,0.,4.8
1980-11-13 12:02:10.050 ,6,0,0.,4.8,19456.,4.8,0.,4.8,0.,4.8
1980-11-13 12:02:14.850 ,7,0,0.,4.8,19968.,4.8,0.,4.8,0.,4.8
1980-11-13 12:02:19.650 ,7,0,0.,4.8,19456.,4.8,0.,4.8,0.,4.8
1980-11-13 12:02:24.450 ,7,0,0.,4.8,19456.,4.8,0.,4.8,0.,4.8
1980-11-13 12:02:29.250 ,7,0,0.,4.8,19456.,4.8,0.,4.8,0.,4.8
1980-11-13 12:02:34.050 ,7,0,0.,4.8,18944.,4.8,0.,4.8,0.,4.8
1980-11-13 12:02:38.850 ,7,0,0.,4.8,19456.,4.8,0.,4.8,0.,4.8
1980-11-13 12:02:43.650 ,7,0,0.,4.8,20480.,4.8,0.,4.8,0.,4.8
1980-11-13 12:02:48.450 ,7,0,0.,4.8,20480.,4.8,0.,4.8,0.,4.8
1980-11-13 12:02:53.250 ,7,0,0.,4.8,19456.,4.8,0.,4.8,0.,4.8
1980-11-13 12:02:58.050 ,7,0,0.,4.8,18944.,4.8,0.,4.8,0.,4.8
1980-11-13 12:03:02.850 ,7,0,0.,4.8,19456.,4.8,0.,4.8,0.,4.8
1980-11-13 12:03:07.650 ,7,0,0.,4.8,18432.,4.8,1.,4.8,0.,4.8
1980-11-13 12:03:12.450 ,7,0,0.,4.8,18944.,4.8,0.,4.8,0.,4.8
1980-11-13 12:03:17.250 ,7,0,0.,4.8,17920.,4.8,0.,4.8,0.,4.8
1980-11-13 12:03:22.050 ,7,0,0.,4.8,18944.,4.8,0.,4.8,0.,4.8
1980-11-13 12:03:26.850 ,7,0,0.,4.8,18944.,4.8,0.,4.8,0.,4.8
1980-11-13 12:03:31.650 ,7,0,0.,4.8,19456.,4.8,0.,4.8,0.,4.8
1980-11-13 12:03:36.450 ,7,0,0.,4.8,19456.,4.8,0.,4.8,0.,4.8
1980-11-13 12:03:41.250 ,7,0,0.,4.8,18944.,4.8,0.,4.8,0.,4.8
1980-11-13 12:03:46.050 ,7,0,0.,4.8,18432.,4.8,0.,4.8,0.,4.8
1980-11-13 12:03:50.850 ,6,0,0.,4.8,18944.,4.8,0.,4.8,0.,4.8
1980-11-13 12:03:55.650 ,6,0,0.,4.8,18944.,4.8,0.,4.8,0.,4.8
1980-11-13 12:04:00.450 ,6,0,0.,4.8,19456.,4.8,0.,4.8,0.,4.8
1980-11-13 12:04:05.250 ,6,0,0.,4.8,17920.,4.8,0.,4.8,0.,4.8
1980-11-13 12:04:10.050 ,6,0,0.,4.8,19456.,4.8,0.,4.8,0.,4.8
1980-11-13 12:04:14.850 ,6,0,0.,4.8,18944.,4.8,0.,4.8,0.,4.8
1980-11-13 12:04:19.650 ,6,0,0.,4.8,18432.,4.8,0.,4.8,0.,4.8
1980-11-13 12:04:24.450 ,6,0,0.,4.8,19456.,4.8,0.,4.8,0.,4.8
1980-11-13 12:04:29.250 ,6,0,0.,4.8,19456.,4.8,0.,4.8,0.,4.8
1980-11-13 12:04:34.050 ,6,0,0.,4.8,18944.,4.8,0.,4.8,0.,4.8
1980-11-13 12:04:38.850 ,5,0,0.,4.8,19456.,4.8,0.,4.8,0.,4.8
1980-11-13 12:04:43.650 ,5,0,0.,4.8,19456.,4.8,0.,4.8,0.,4.8
1980-11-13 12:04:48.450 ,5,0,0.,4.8,19968.,4.8,0.,4.8,0.,4.8
1980-11-13 12:04:53.250 ,5,0,0.,4.8,20480.,4.8,0.,4.8,0.,4.8
1980-11-13 12:04:58.050 ,5,0,0.,4.8,18944.,4.8,0.,4.8,0.,4.8
1980-11-13 12:05:02.850 ,5,0,0.,4.8,20480.,4.8,0.,4.8,0.,4.8
1980-11-13 12:05:07.650 ,5,0,0.,4.8,18944.,4.8,0.,4.8,0.,4.8
1980-11-13 12:05:12.450 ,5,0,0.,4.8,19456.,4.8,0.,4.8,0.,4.8
1980-11-13 12:05:17.250 ,5,0,0.,4.8,19968.,4.8,0.,4.8,0.,4.8
1980-11-13 12:05:22.050 ,5,0,0.,4.8,18944.,4.8,0.,4.8,0.,4.8
1980-11-13 12:05:26.850 ,4,0,0.,4.8,18944.,4.8,0.,4.8,0.,4.8
1980-11-13 12:05:31.650 ,4,0,0.,4.8,18944.,4.8,0.,4.8,0.,4.8
1980-11-13 12:05:36.450 ,4,0,0.,4.8,18944.,4.8,0.,4.8,0.,4.8
1980-11-13 12:05:41.250 ,4,0,0.,4.8,18944.,4.8,0.,4.8,0.,4.8
1980-11-13 12:05:46.050 ,4,0,0.,4.8,18432.,4.8,0.,4.8,0.,4.8
1980-11-13 12:05:50.850 ,4,0,0.,4.8,18944.,4.8,0.,4.8,0.,4.8
1980-11-13 12:05:55.650 ,4,0,0.,4.8,19456.,4.8,0.,4.8,0.,4.8
1980-11-13 12:06:00.450 ,4,0,0.,4.8,18944.,4.8,0.,4.8,0.,4.8
1980-11-13 12:06:05.250 ,4,0,0.,4.8,19456.,4.8,0.,4.8,0.,4.8
1980-11-13 12:06:10.050 ,4,0,0.,4.8,18944.,4.8,0.,4.8,0.,4.8
1980-11-13 12:06:14.850 ,3,0,0.,4.8,18944.,4.8,0.,4.8,0.,4.8
1980-11-13 12:06:19.650 ,3,0,0.,4.8,19456.,4.8,0.,4.8,0.,4.8
1980-11-13 12:06:24.450 ,3,0,0.,4.8,19456.,4.8,0.,4.8,0.,4.8
1980-11-13 12:06:29.250 ,3,0,0.,4.8,19968.,4.8,0.,4.8,0.,4.8
1980-11-13 12:06:34.050 ,3,0,0.,4.8,19456.,4.8,0.,4.8,0.,4.8
1980-11-13 12:06:38.850 ,3,0,0.,4.8,19968.,4.8,0.,4.8,0.,4.8
1980-11-13 12:06:43.650 ,3,0,0.,4.8,18944.,4.8,0.,4.8,0.,4.8
1980-11-13 12:06:48.450 ,3,0,0.,4.8,19456.,4.8,0.,4.8,0.,4.8
1980-11-13 12:06:53.250 ,3,0,0.,4.8,19968.,4.8,0.,4.8,0.,4.8
1980-11-13 12:06:58.050 ,3,0,0.,4.8,20480.,4.8,0.,4.8,0.,4.8
1980-11-13 12:07:02.850 ,2,0,0.,4.8,20480.,4.8,0.,4.8,0.,4.8
1980-11-13 12:07:07.650 ,2,0,0.,4.8,20480.,4.8,0.,4.8,0.,4.8
1980-11-13 12:07:12.450 ,2,0,0.,4.8,20480.,4.8,0.,4.8,0.,4.8
1980-11-13 12:07:17.250 ,2,0,0.,4.8,19968.,4.8,0.,4.8,0.,4.8
1980-11-13 12:07:22.050 ,2,0,0.,4.8,19456.,4.8,0.,4.8,0.,4.8
1980-11-13 12:07:26.850 ,2,0,0.,4.8,19968.,4.8,0.,4.8,0.,4.8
1980-11-13 12:07:31.650 ,2,0,0.,4.8,19968.,4.8,0.,4.8,0.,4.8
1980-11-13 12:07:36.450 ,2,0,0.,4.8,19968.,4.8,0.,4.8,0.,4.8
1980-11-13 12:07:41.250 ,2,0,0.,4.8,19968.,4.8,0.,4.8,0.,4.8
1980-11-13 12:07:46.050 ,2,0,0.,4.8,19968.,4.8,0.,4.8,0.,4.8
1980-11-13 12:07:50.850 ,1,0,0.,4.8,20480.,4.8,0.,4.8,0.,4.8
1980-11-13 12:07:55.650 ,1,0,0.,4.8,20992.,4.8,0.,4.8,0.,4.8
1980-11-13 12:08:00.450 ,1,0,0.,4.8,19968.,4.8,0.,4.8,0.,4.8
1980-11-13 12:08:05.250 ,1,0,0.,4.8,19968.,4.8,0.,4.8,0.,4.8
1980-11-13 12:08:10.050 ,1,0,0.,4.8,19456.,4.8,0.,4.8,0.,4.8
1980-11-13 12:08:14.850 ,1,0,0.,4.8,20480.,4.8,0.,4.8,0.,4.8
1980-11-13 12:08:19.650 ,1,0,0.,4.8,19968.,4.8,0.,4.8,0.,4.8
1980-11-13 12:08:24.450 ,1,0,0.,4.8,19968.,4.8,0.,4.8,0.,4.8
1980-11-13 12:08:29.250 ,1,0,0.,4.8,19968.,4.8,0.,4.8,0.,4.8
1980-11-13 12:08:34.050 ,1,0,0.,4.8,19456.,4.8,0.,4.8,0.,4.8
1980-11-13 12:08:38.850 ,0,0,0.,4.8,19456.,4.8,0.,4.8,0.,4.8
1980-11-13 12:08:43.650 ,0,0,0.,4.8,20480.,4.8,0.,4.8,0.,4.8
1980-11-13 12:08:48.450 ,0,0,0.,4.8,19968.,4.8,0.,4.8,0.,4.8
1980-11-13 12:08:53.250 ,0,0,0.,4.8,19456.,4.8,0.,4.8,0.,4.8
1980-11-13 12:08:58.050 ,0,0,0.,4.8,19968.,4.8,0.,4.8,0.,4.8
1980-11-13 12:09:02.850 ,0,0,0.,4.8,19456.,4.8,0.,4.8,0.,4.8
1980-11-13 12:09:07.650 ,0,0,0.,4.8,19968.,4.8,0.,4.8,0.,4.8
1980-11-13 12:09:12.450 ,0,0,0.,4.8,19456.,4.8,0.,4.8,0.,4.8
1980-11-13 12:09:17.250 ,0,0,0.,4.8,19968.,4.8,0.,4.8,0.,4.8
1980-11-13 12:09:22.050 ,0,0,0.,4.8,19456.,4.8,0.,4.8,0.,4.8
1980-11-13 12:09:26.850 ,0,0,0.,4.8,18944.,4.8,0.,4.8,0.,4.8
1980-11-13 12:09:31.650 ,0,0,0.,4.8,18944.,4.8,0.,4.8,0.,4.8
1980-11-13 12:09:36.450 ,0,0,0.,4.8,18944.,4.8,0.,4.8,0.,4.8
1980-11-13 12:09:41.250 ,0,0,0.,4.8,18944.,4.8,0.,4.8,0.,4.8
1980-11-13 12:09:46.050 ,0,0,0.,4.8,18944.,4.8,0.,4.8,0.,4.8
1980-11-13 12:09:50.850 ,0,0,0.,4.8,18944.,4.8,0.,4.8,0.,4.8
1980-11-13 12:09:55.650 ,0,0,0.,4.8,18944.,4.8,0.,4.8,0.,4.8
1980-11-13 12:10:00.450 ,0,0,0.,4.8,19456.,4.8,0.,4.8,0.,4.8
1980-11-13 12:10:05.250 ,0,0,0.,4.8,18432.,4.8,0.,4.8,0.,4.8
1980-11-13 12:10:10.050 ,0,0,0.,4.8,19456.,4.8,0.,4.8,0.,4.8
1980-11-13 12:10:14.850 ,1,0,0.,4.8,19456.,4.8,0.,4.8,0.,4.8
1980-11-13 12:10:19.650 ,1,0,0.,4.8,19968.,4.8,0.,4.8,0.,4.8
1980-11-13 12:10:24.450 ,1,0,0.,4.8,19968.,4.8,0.,4.8,0.,4.8
1980-11-13 12:10:29.250 ,1,0,0.,4.8,20480.,4.8,0.,4.8,0.,4.8
1980-11-13 12:10:34.050 ,1,0,0.,4.8,19968.,4.8,0.,4.8,0.,4.8
1980-11-13 12:10:38.850 ,1,0,0.,4.8,20480.,4.8,0.,4.8,0.,4.8
1980-11-13 12:10:43.650 ,1,0,0.,4.8,19456.,4.8,0.,4.8,0.,4.8
1980-11-13 12:10:48.450 ,1,0,0.,4.8,19456.,4.8,0.,4.8,0.,4.8
1980-11-13 12:10:53.250 ,1,0,0.,4.8,18944.,4.8,0.,4.8,0.,4.8
1980-11-13 12:10:58.050 ,1,0,0.,4.8,19456.,4.8,0.,4.8,0.,4.8
1980-11-13 12:11:02.850 ,2,0,,0,,0,,0,,0
1980-11-13 12:11:07.650 ,2,0,0.,4.8,19456.,4.8,0.,4.8,0.,4.8
1980-11-13 12:11:12.450 ,2,0,0.,4.8,19456.,4.8,0.,4.8,0.,4.8
1980-11-13 12:11:17.250 ,2,0,0.,4.8,18432.,4.8,0.,4.8,0.,4.8
1980-11-13 12:11:22.050 ,2,0,0.,4.8,19968.,4.8,0.,4.8,0.,4.8
1980-11-13 12:11:26.850 ,2,0,0.,4.8,19968.,4.8,0.,4.8,0.,4.8
1980-11-13 12:11:31.650 ,2,0,0.,4.8,19968.,4.8,0.,4.8,0.,4.8
1980-11-13 12:11:36.450 ,2,0,0.,4.8,19456.,4.8,0.,4.8,0.,4.8
1980-11-13 12:11:41.250 ,2,0,0.,4.8,19968.,4.8,0.,4.8,0.,4.8
1980-11-13 12:11:46.050 ,2,0,0.,4.8,20480.,4.8,0.,4.8,0.,4.8
1980-11-13 12:11:50.850 ,3,0,0.,4.8,19456.,4.8,0.,4.8,0.,4.8
1980-11-13 12:11:55.650 ,3,0,0.,4.8,19456.,4.8,0.,4.8,0.,4.8
1980-11-13 12:12:00.450 ,3,0,0.,4.8,19456.,4.8,0.,4.8,0.,4.8
1980-11-13 12:12:05.250 ,3,0,0.,4.8,19456.,4.8,0.,4.8,0.,4.8
1980-11-13 12:12:10.050 ,3,0,0.,4.8,19456.,4.8,0.,4.8,0.,4.8
1980-11-13 12:12:14.850 ,3,0,0.,4.8,18432.,4.8,0.,4.8,0.,4.8
1980-11-13 12:12:19.650 ,3,0,0.,4.8,17920.,4.8,0.,4.8,0.,4.8
1980-11-13 12:12:24.450 ,3,0,0.,4.8,19456.,4.8,0.,4.8,0.,4.8
1980-11-13 12:12:29.250 ,3,0,0.,4.8,18432.,4.8,0.,4.8,0.,4.8
1980-11-13 12:12:34.050 ,3,0,0.,4.8,18432.,4.8,0.,4.8,0.,4.8
1980-11-13 12:12:38.850 ,4,0,0.,4.8,18432.,4.8,0.,4.8,0.,4.8
1980-11-13 12:12:43.650 ,4,0,0.,4.8,18432.,4.8,0.,4.8,0.,4.8
1980-11-13 12:12:48.450 ,4,0,0.,4.8,18944.,4.8,0.,4.8,0.,4.8
1980-11-13 12:12:53.250 ,4,0,0.,4.8,18944.,4.8,0.,4.8,0.,4.8
1980-11-13 12:12:58.050 ,4,0,0.,4.8,18944.,4.8,0.,4.8,0.,4.8
1980-11-13 12:13:02.850 ,4,0,0.,4.8,18944.,4.8,0.,4.8,0.,4.8
1980-11-13 12:13:07.650 ,4,0,0.,4.8,19968.,4.8,0.,4.8,0.,4.8
1980-11-13 12:13:12.450 ,4,0,0.,4.8,19456.,4.8,0.,4.8,0.,4.8
1980-11-13 12:13:17.250 ,4,0,0.,4.8,18432.,4.8,0.,4.8,0.,4.8
1980-11-13 12:13:22.050 ,4,0,0.,4.8,18944.,4.8,0.,4.8,0.,4.8
1980-11-13 12:13:26.850 ,5,0,0.,4.8,19968.,4.8,0.,4.8,0.,4.8
1980-11-13 12:13:31.650 ,5,0,0.,4.8,18944.,4.8,0.,4.8,0.,4.8
1980-11-13 12:13:36.450 ,5,0,0.,4.8,19968.,4.8,0.,4.8,0.,4.8
1980-11-13 12:13:41.250 ,5,0,0.,4.8,18944.,4.8,0.,4.8,0.,4.8
1980-11-13 12:13:46.050 ,5,0,0.,4.8,18944.,4.8,0.,4.8,0.,4.8
1980-11-13 12:13:50.850 ,5,0,0.,4.8,18944.,4.8,0.,4.8,0.,4.8
1980-11-13 12:13:55.650 ,5,0,0.,4.8,19456.,4.8,0.,4.8,0.,4.8
1980-11-13 12:14:00.450 ,5,0,0.,4.8,19456.,4.8,0.,4.8,0.,4.8
1980-11-13 12:14:05.250 ,5,0,0.,4.8,19968.,4.8,0.,4.8,0.,4.8
1980-11-13 12:14:10.050 ,5,0,0.,4.8,19456.,4.8,0.,4.8,0.,4.8
1980-11-13 12:14:14.850 ,6,0,0.,4.8,18944.,4.8,0.,4.8,0.,4.8
1980-11-13 12:14:19.650 ,6,0,0.,4.8,19456.,4.8,0.,4.8,0.,4.8
1980-11-13 12:14:24.450 ,6,0,0.,4.8,19456.,4.8,0.,4.8,0.,4.8
1980-11-13 12:14:29.250 ,6,0,0.,4.8,20480.,4.8,0.,4.8,0.,4.8
1980-11-13 12:14:34.050 ,6,0,0.,4.8,18432.,4.8,0.,4.8,0.,4.8
1980-11-13 12:14:38.850 ,6,0,0.,4.8,18432.,4.8,0.,4.8,0.,4.8
1980-11-13 12:14:43.650 ,6,0,0.,4.8,18944.,4.8,0.,4.8,0.,4.8
1980-11-13 12:14:48.450 ,6,0,0.,4.8,18944.,4.8,0.,4.8,0.,4.8
1980-11-13 12:14:53.250 ,6,0,0.,4.8,19456.,4.8,0.,4.8,0.,4.8
1980-11-13 12:14:58.050 ,6,0,0.,4.8,19456.,4.8,0.,4.8,0.,4.8
1980-11-13 12:15:02.850 ,7,0,0.,4.8,19456.,4.8,0.,4.8,0.,4.8
1980-11-13 12:15:07.650 ,7,0,0.,4.8,19456.,4.8,0.,4.8,0.,4.8
1980-11-13 12:15:12.450 ,7,0,0.,4.8,19456.,4.8,0.,4.8,0.,4.8
1980-11-13 12:15:17.250 ,7,0,0.,4.8,18944.,4.8,0.,4.8,0.,4.8
1980-11-13 12:15:22.050 ,7,0,0.,4.8,19968.,4.8,0.,4.8,0.,4.8
1980-11-13 12:15:26.850 ,7,0,0.,4.8,19968.,4.8,0.,4.8,0.,4.8
1980-11-13 12:15:31.650 ,7,0,0.,4.8,18432.,4.8,0.,4.8,0.,4.8
1980-11-13 12:15:36.450 ,7,0,0.,4.8,18944.,4.8,0.,4.8,0.,4.8
1980-11-13 12:15:41.250 ,7,0,0.,4.8,18944.,4.8,0.,4.8,0.,4.8
1980-11-13 12:15:46.050 ,7,0,0.,4.8,19456.,4.8,0.,4.8,0.,4.8
1980-11-13 12:15:50.850 ,7,0,0.,4.8,19456.,4.8,0.,4.8,0.,4.8
1980-11-13 12:15:55.650 ,7,0,0.,4.8,18944.,4.8,0.,4.8,0.,4.8
1980-11-13 12:16:00.450 ,7,0,0.,4.8,18944.,4.8,0.,4.8,0.,4.8
1980-11-13 12:16:05.250 ,7,0,0.,4.8,18944.,4.8,0.,4.8,0.,4.8
1980-11-13 12:16:10.050 ,7,0,0.,4.8,18944.,4.8,0.,4.8,0.,4.8
1980-11-13 12:16:14.850 ,7,0,0.,4.8,19456.,4.8,0.,4.8,0.,4.8
1980-11-13 12:16:19.650 ,7,0,0.,4.8,18944.,4.8,0.,4.8,0.,4.8
1980-11-13 12:16:24.450 ,7,0,0.,4.8,19968.,4.8,0.,4.8,0.,4.8
1980-11-13 12:16:29.250 ,7,0,0.,4.8,18432.,4.8,0.,4.8,0.,4.8
1980-11-13 12:16:34.050 ,7,0,0.,4.8,18432.,4.8,0.,4.8,0.,4.8
1980-11-13 12:16:38.850 ,6,0,0.,4.8,19456.,4.8,0.,4.8,0.,4.8
1980-11-13 12:16:43.650 ,6,0,0.,4.8,18944.,4.8,0.,4.8,0.,4.8
1980-11-13 12:16:48.450 ,6,0,0.,4.8,19968.,4.8,0.,4.8,0.,4.8
1980-11-13 12:16:53.250 ,6,0,0.,4.8,19456.,4.8,0.,4.8,0.,4.8
1980-11-13 12:16:58.050 ,6,0,0.,4.8,18944.,4.8,0.,4.8,0.,4.8
1980-11-13 12:17:02.850 ,6,0,0.,4.8,19456.,4.8,0.,4.8,0.,4.8
1980-11-13 12:17:07.650 ,6,0,0.,4.8,18944.,4.8,0.,4.8,0.,4.8
1980-11-13 12:17:12.450 ,6,0,0.,4.8,19968.,4.8,0.,4.8,0.,4.8
1980-11-13 12:17:17.250 ,6,0,0.,4.8,19456.,4.8,0.,4.8,0.,4.8
1980-11-13 12:17:22.050 ,6,0,0.,4.8,19456.,4.8,0.,4.8,0.,4.8
1980-11-13 12:17:26.850 ,5,0,0.,4.8,18432.,4.8,0.,4.8,0.,4.8
1980-11-13 12:17:31.650 ,5,0,0.,4.8,17920.,4.8,0.,4.8,0.,4.8
1980-11-13 12:17:36.450 ,5,0,0.,4.8,17920.,4.8,0.,4.8,0.,4.8
1980-11-13 12:17:41.250 ,5,0,0.,4.8,18432.,4.8,0.,4.8,0.,4.8
1980-11-13 12:17:46.050 ,5,0,0.,4.8,18944.,4.8,0.,4.8,0.,4.8
1980-11-13 12:17:50.850 ,5,0,0.,4.8,19456.,4.8,0.,4.8,0.,4.8
1980-11-13 12:17:55.650 ,5,0,0.,4.8,18944.,4.8,0.,4.8,0.,4.8
1980-11-13 12:18:00.450 ,5,0,0.,4.8,18432.,4.8,0.,4.8,0.,4.8
1980-11-13 12:18:05.250 ,5,0,0.,4.8,19456.,4.8,1.,4.8,0.,4.8
1980-11-13 12:18:10.050 ,5,0,0.,4.8,18432.,4.8,0.,4.8,0.,4.8
1980-11-13 12:18:14.850 ,4,0,0.,4.8,18944.,4.8,0.,4.8,0.,4.8
1980-11-13 12:18:19.650 ,4,0,0.,4.8,18944.,4.8,0.,4.8,0.,4.8
1980-11-13 12:18:24.450 ,4,0,0.,4.8,18944.,4.8,0.,4.8,0.,4.8
1980-11-13 12:18:29.250 ,4,0,0.,4.8,18944.,4.8,0.,4.8,0.,4.8
1980-11-13 12:18:34.050 ,4,0,0.,4.8,19968.,4.8,0.,4.8,0.,4.8
1980-11-13 12:18:38.850 ,4,0,0.,4.8,20480.,4.8,0.,4.8,0.,4.8
1980-11-13 12:18:43.650 ,4,0,0.,4.8,19456.,4.8,0.,4.8,0.,4.8
1980-11-13 12:18:48.450 ,4,0,0.,4.8,19456.,4.8,0.,4.8,0.,4.8
1980-11-13 12:18:53.250 ,4,0,0.,4.8,17920.,4.8,0.,4.8,0.,4.8
1980-11-13 12:18:58.050 ,4,0,0.,4.8,18944.,4.8,0.,4.8,0.,4.8
1980-11-13 12:19:02.850 ,3,0,0.,4.8,18944.,4.8,0.,4.8,0.,4.8
1980-11-13 12:19:07.650 ,3,0,0.,4.8,18944.,4.8,0.,4.8,0.,4.8
1980-11-13 12:19:12.450 ,3,0,0.,4.8,18944.,4.8,0.,4.8,0.,4.8
1980-11-13 12:19:17.250 ,3,0,0.,4.8,19456.,4.8,0.,4.8,0.,4.8
1980-11-13 12:19:22.050 ,3,0,0.,4.8,18944.,4.8,0.,4.8,0.,4.8
1980-11-13 12:19:26.850 ,3,0,0.,4.8,19456.,4.8,0.,4.8,0.,4.8
1980-11-13 12:19:31.650 ,3,0,0.,4.8,18432.,4.8,0.,4.8,0.,4.8
1980-11-13 12:19:36.450 ,3,0,0.,4.8,18944.,4.8,0.,4.8,0.,4.8
1980-11-13 12:19:41.250 ,3,0,0.,4.8,18944.,4.8,0.,4.8,0.,4.8
1980-11-13 12:19:46.050 ,3,0,0.,4.8,19456.,4.8,0.,4.8,0.,4.8
1980-11-13 12:19:50.850 ,2,0,0.,4.8,18944.,4.8,0.,4.8,0.,4.8
1980-11-13 12:19:55.650 ,2,0,0.,4.8,19456.,4.8,0.,4.8,0.,4.8
1980-11-13 12:20:00.450 ,2,0,0.,4.8,19968.,4.8,0.,4.8,0.,4.8
1980-11-13 12:20:05.250 ,2,0,0.,4.8,19968.,4.8,0.,4.8,0.,4.8
1980-11-13 12:20:10.050 ,2,0,0.,4.8,18944.,4.8,0.,4.8,0.,4.8
1980-11-13 12:20:14.850 ,2,0,0.,4.8,19968.,4.8,0.,4.8,0.,4.8
1980-11-13 12:20:19.650 ,2,0,0.,4.8,18432.,4.8,0.,4.8,0.,4.8
1980-11-13 12:20:24.450 ,2,0,0.,4.8,18944.,4.8,0.,4.8,0.,4.8
1980-11-13 12:20:29.250 ,2,0,0.,4.8,18944.,4.8,0.,4.8,0.,4.8
1980-11-13 12:20:34.050 ,2,0,0.,4.8,18432.,4.8,0.,4.8,0.,4.8
1980-11-13 12:20:38.850 ,1,0,0.,4.8,19456.,4.8,0.,4.8,0.,4.8
1980-11-13 12:20:43.650 ,1,0,0.,4.8,19456.,4.8,0.,4.8,0.,4.8
1980-11-13 12:20:48.450 ,1,0,0.,4.8,18944.,4.8,0.,4.8,0.,4.8
1980-11-13 12:20:53.250 ,1,0,0.,4.8,18432.,4.8,0.,4.8,0.,4.8
1980-11-13 12:20:58.050 ,1,0,0.,4.8,18944.,4.8,0.,4.8,0.,4.8
1980-11-13 12:21:02.850 ,1,0,0.,4.8,17920.,4.8,0.,4.8,0.,4.8
1980-11-13 12:21:07.650 ,1,0,0.,4.8,17408.,4.8,0.,4.8,0.,4.8
1980-11-13 12:21:12.450 ,1,0,0.,4.8,17920.,4.8,0.,4.8,0.,4.8
1980-11-13 12:21:17.250 ,1,0,0.,4.8,18432.,4.8,0.,4.8,0.,4.8
1980-11-13 12:21:22.050 ,1,0,0.,4.8,19456.,4.8,0.,4.8,0.,4.8
1980-11-13 12:21:26.850 ,0,0,0.,4.8,18432.,4.8,0.,4.8,0.,4.8
1980-11-13 12:21:31.650 ,0,0,0.,4.8,18432.,4.8,0.,4.8,0.,4.8
1980-11-13 12:21:36.450 ,0,0,0.,4.8,18944.,4.8,0.,4.8,0.,4.8
1980-11-13 12:21:41.250 ,0,0,0.,4.8,18432.,4.8,0.,4.8,0.,4.8
1980-11-13 12:21:46.050 ,0,0,0.,4.8,17920.,4.8,0.,4.8,0.,4.8
1980-11-13 12:21:50.850 ,0,0,0.,4.8,18944.,4.8,0.,4.8,0.,4.8
1980-11-13 12:21:55.650 ,0,0,0.,4.8,18944.,4.8,0.,4.8,0.,4.8
1980-11-13 12:22:00.450 ,0,0,0.,4.8,19456.,4.8,0.,4.8,0.,4.8
1980-11-13 12:22:05.250 ,0,0,0.,4.8,19456.,4.8,0.,4.8,0.,4.8
1980-11-13 12:22:10.050 ,0,0,0.,4.8,18432.,4.8,0.,4.8,0.,4.8
1980-11-13 12:22:14.850 ,0,0,0.,4.8,18944.,4.8,0.,4.8,0.,4.8
1980-11-13 12:22:19.650 ,0,0,0.,4.8,20480.,4.8,0.,4.8,0.,4.8
1980-11-13 12:22:24.450 ,0,0,0.,4.8,19968.,4.8,0.,4.8,0.,4.8
1980-11-13 12:22:29.250 ,0,0,0.,4.8,19456.,4.8,0.,4.8,0.,4.8
1980-11-13 12:22:34.050 ,0,0,0.,4.8,18944.,4.8,0.,4.8,0.,4.8
1980-11-13 12:22:38.850 ,0,0,0.,4.8,18432.,4.8,0.,4.8,0.,4.8
1980-11-13 12:22:43.650 ,0,0,0.,4.8,17920.,4.8,0.,4.8,0.,4.8
1980-11-13 12:22:48.450 ,0,0,0.,4.8,17920.,4.8,0.,4.8,0.,4.8
1980-11-13 12:22:53.250 ,0,0,0.,4.8,18432.,4.8,0.,4.8,0.,4.8
1980-11-13 12:22:58.050 ,0,0,0.,4.8,17920.,4.8,0.,4.8,0.,4.8
1980-11-13 12:23:02.850 ,1,0,0.,4.8,17408.,4.8,0.,4.8,0.,4.8
1980-11-13 12:23:07.650 ,1,0,0.,4.8,17920.,4.8,0.,4.8,0.,4.8
1980-11-13 12:23:12.450 ,1,0,0.,4.8,18432.,4.8,0.,4.8,0.,4.8
1980-11-13 12:23:17.250 ,1,0,0.,4.8,17920.,4.8,0.,4.8,0.,4.8
1980-11-13 12:23:22.050 ,1,0,0.,4.8,18432.,4.8,0.,4.8,0.,4.8
1980-11-13 12:23:26.850 ,1,0,0.,4.8,17920.,4.8,0.,4.8,0.,4.8
1980-11-13 12:23:31.650 ,1,0,0.,4.8,18432.,4.8,0.,4.8,0.,4.8
1980-11-13 12:23:36.450 ,1,0,0.,4.8,18944.,4.8,0.,4.8,0.,4.8
1980-11-13 12:23:41.250 ,1,0,0.,4.8,18432.,4.8,0.,4.8,0.,4.8
1980-11-13 12:23:46.050 ,1,0,0.,4.8,18432.,4.8,0.,4.8,0.,4.8
1980-11-13 12:23:50.850 ,2,0,0.,4.8,18432.,4.8,0.,4.8,0.,4.8
1980-11-13 12:23:55.650 ,2,0,0.,4.8,18432.,4.8,0.,4.8,0.,4.8
1980-11-13 12:24:00.450 ,2,0,0.,4.8,18944.,4.8,0.,4.8,0.,4.8
1980-11-13 12:24:05.250 ,2,0,0.,4.8,17920.,4.8,0.,4.8,0.,4.8
1980-11-13 12:24:10.050 ,2,0,0.,4.8,18432.,4.8,0.,4.8,0.,4.8
1980-11-13 12:24:14.850 ,2,0,0.,4.8,19456.,4.8,0.,4.8,0.,4.8
1980-11-13 12:24:19.650 ,2,0,0.,4.8,19968.,4.8,0.,4.8,0.,4.8
1980-11-13 12:24:24.450 ,2,0,0.,4.8,19456.,4.8,0.,4.8,0.,4.8
1980-11-13 12:24:29.250 ,2,0,0.,4.8,18944.,4.8,0.,4.8,0.,4.8
1980-11-13 12:24:34.050 ,2,0,0.,4.8,18944.,4.8,0.,4.8,0.,4.8
1980-11-13 12:24:38.850 ,3,0,0.,4.8,17920.,4.8,0.,4.8,0.,4.8
1980-11-13 12:24:43.650 ,3,0,0.,4.8,17408.,4.8,0.,4.8,0.,4.8
1980-11-13 12:24:48.450 ,3,0,0.,4.8,17920.,4.8,0.,4.8,0.,4.8
1980-11-13 12:24:53.250 ,3,0,0.,4.8,18432.,4.8,0.,4.8,0.,4.8
1980-11-13 12:24:58.050 ,3,0,0.,4.8,18432.,4.8,0.,4.8,0.,4.8
1980-11-13 12:25:02.850 ,3,0,0.,4.8,17920.,4.8,0.,4.8,0.,4.8
1980-11-13 12:25:07.650 ,3,0,0.,4.8,18432.,4.8,0.,4.8,0.,4.8
1980-11-13 12:25:12.450 ,3,0,0.,4.8,18944.,4.8,0.,4.8,0.,4.8
1980-11-13 12:25:17.250 ,3,0,0.,4.8,18944.,4.8,0.,4.8,0.,4.8
1980-11-13 12:25:22.050 ,3,0,0.,4.8,18432.,4.8,0.,4.8,0.,4.8
1980-11-13 12:25:26.850 ,4,0,0.,4.8,19456.,4.8,0.,4.8,0.,4.8
1980-11-13 12:25:31.650 ,4,0,0.,4.8,18944.,4.8,0.,4.8,0.,4.8
1980-11-13 12:25:36.450 ,4,0,0.,4.8,18944.,4.8,0.,4.8,0.,4.8
1980-11-13 12:25:41.250 ,4,0,0.,4.8,18432.,4.8,0.,4.8,0.,4.8
1980-11-13 12:25:46.050 ,4,0,0.,4.8,17920.,4.8,0.,4.8,0.,4.8
1980-11-13 12:25:50.850 ,4,0,0.,4.8,17408.,4.8,0.,4.8,0.,4.8
1980-11-13 12:25:55.650 ,4,0,0.,4.8,18432.,4.8,0.,4.8,0.,4.8
1980-11-13 12:26:00.450 ,4,0,0.,4.8,19456.,4.8,0.,4.8,0.,4.8
1980-11-13 12:26:05.250 ,4,0,0.,4.8,18432.,4.8,0.,4.8,0.,4.8
1980-11-13 12:26:10.050 ,4,0,0.,4.8,17920.,4.8,0.,4.8,0.,4.8
1980-11-13 12:26:14.850 ,5,0,0.,4.8,18432.,4.8,0.,4.8,0.,4.8
1980-11-13 12:26:19.650 ,5,0,0.,4.8,18944.,4.8,0.,4.8,0.,4.8
1980-11-13 12:26:24.450 ,5,0,0.,4.8,19968.,4.8,0.,4.8,0.,4.8
1980-11-13 12:26:29.250 ,5,0,0.,4.8,18944.,4.8,0.,4.8,0.,4.8
1980-11-13 12:26:34.050 ,5,0,0.,4.8,19456.,4.8,0.,4.8,0.,4.8
1980-11-13 12:26:38.850 ,5,0,0.,4.8,18944.,4.8,0.,4.8,0.,4.8
1980-11-13 12:26:43.650 ,5,0,0.,4.8,19456.,4.8,0.,4.8,0.,4.8
1980-11-13 12:26:48.450 ,5,0,0.,4.8,19456.,4.8,0.,4.8,0.,4.8
1980-11-13 12:26:53.250 ,5,0,0.,4.8,19968.,4.8,0.,4.8,0.,4.8
1980-11-13 12:26:58.050 ,5,0,0.,4.8,18944.,4.8,0.,4.8,0.,4.8
1980-11-13 12:27:02.850 ,6,0,0.,4.8,19456.,4.8,0.,4.8,0.,4.8
1980-11-13 12:27:07.650 ,6,0,0.,4.8,18432.,4.8,0.,4.8,0.,4.8
1980-11-13 12:27:12.450 ,6,0,0.,4.8,18432.,4.8,0.,4.8,0.,4.8
1980-11-13 12:27:17.250 ,6,0,0.,4.8,18432.,4.8,0.,4.8,0.,4.8
1980-11-13 12:27:22.050 ,6,0,0.,4.8,19456.,4.8,0.,4.8,0.,4.8
1980-11-13 12:27:26.850 ,6,0,0.,4.8,18432.,4.8,0.,4.8,0.,4.8
1980-11-13 12:27:31.650 ,6,0,0.,4.8,16896.,4.8,0.,4.8,0.,4.8
1980-11-13 12:27:36.450 ,6,0,0.,4.8,18432.,4.8,0.,4.8,0.,4.8
1980-11-13 12:27:41.250 ,6,0,0.,4.8,17920.,4.8,0.,4.8,0.,4.8
1980-11-13 12:27:46.050 ,6,0,0.,4.8,17920.,4.8,0.,4.8,0.,4.8
1980-11-13 12:27:50.850 ,7,0,0.,4.8,18944.,4.8,1.,4.8,0.,4.8
1980-11-13 12:27:55.650 ,7,0,0.,4.8,18432.,4.8,0.,4.8,0.,4.8
1980-11-13 12:28:00.450 ,7,0,0.,4.8,18944.,4.8,0.,4.8,0.,4.8
1980-11-13 12:28:05.250 ,7,0,0.,4.8,19456.,4.8,0.,4.8,0.,4.8
1980-11-13 12:28:10.050 ,7,0,0.,4.8,19968.,4.8,0.,4.8,0.,4.8
1980-11-13 12:28:14.850 ,7,0,0.,4.8,18944.,4.8,0.,4.8,0.,4.8
1980-11-13 12:28:19.650 ,7,0,0.,4.8,19968.,4.8,0.,4.8,0.,4.8
1980-11-13 12:28:24.450 ,7,0,0.,4.8,19968.,4.8,0.,4.8,0.,4.8
1980-11-13 12:28:29.250 ,7,0,0.,4.8,18944.,4.8,0.,4.8,0.,4.8
1980-11-13 12:28:34.050 ,7,0,0.,4.8,18432.,4.8,0.,4.8,0.,4.8
1980-11-13 12:28:38.850 ,7,0,0.,4.8,18432.,4.8,0.,4.8,0.,4.8
1980-11-13 12:28:43.650 ,7,0,0.,4.8,17920.,4.8,0.,4.8,0.,4.8
1980-11-13 12:28:48.450 ,7,0,0.,4.8,17920.,4.8,0.,4.8,0.,4.8
1980-11-13 12:28:53.250 ,7,0,0.,4.8,17920.,4.8,0.,4.8,0.,4.8
1980-11-13 12:28:58.050 ,7,0,0.,4.8,17920.,4.8,0.,4.8,0.,4.8
1980-11-13 12:29:02.850 ,7,0,0.,4.8,18432.,4.8,0.,4.8,0.,4.8
1980-11-13 12:29:07.650 ,7,0,0.,4.8,19456.,4.8,0.,4.8,0.,4.8
1980-11-13 12:29:12.450 ,7,0,0.,4.8,18432.,4.8,0.,4.8,0.,4.8
1980-11-13 12:29:17.250 ,7,0,0.,4.8,18944.,4.8,0.,4.8,0.,4.8
1980-11-13 12:29:22.050 ,7,0,0.,4.8,19456.,4.8,0.,4.8,0.,4.8
1980-11-13 12:29:26.850 ,6,0,0.,4.8,18944.,4.8,0.,4.8,0.,4.8
1980-11-13 12:29:31.650 ,6,0,0.,4.8,17920.,4.8,0.,4.8,0.,4.8
1980-11-13 12:29:36.450 ,6,0,0.,4.8,18432.,4.8,0.,4.8,0.,4.8
1980-11-13 12:29:41.250 ,6,0,0.,4.8,18944.,4.8,0.,4.8,0.,4.8
1980-11-13 12:29:46.050 ,6,0,0.,4.8,19456.,4.8,0.,4.8,0.,4.8
1980-11-13 12:29:50.850 ,6,0,0.,4.8,19456.,4.8,0.,4.8,0.,4.8
1980-11-13 12:29:55.650 ,6,0,0.,4.8,19968.,4.8,0.,4.8,0.,4.8
1980-11-13 12:30:00.450 ,6,0,0.,4.8,18944.,4.8,0.,4.8,0.,4.8
1980-11-13 12:30:05.250 ,6,0,0.,4.8,19456.,4.8,0.,4.8,0.,4.8
1980-11-13 12:30:10.050 ,6,0,0.,4.8,19968.,4.8,0.,4.8,0.,4.8
1980-11-13 12:30:14.850 ,5,0,0.,4.8,18432.,4.8,0.,4.8,0.,4.8
1980-11-13 12:30:19.650 ,5,0,0.,4.8,17920.,4.8,0.,4.8,0.,4.8
1980-11-13 12:30:24.450 ,5,0,0.,4.8,18944.,4.8,0.,4.8,0.,4.8
1980-11-13 12:30:29.250 ,5,0,0.,4.8,17920.,4.8,0.,4.8,0.,4.8
1980-11-13 12:30:34.050 ,5,0,0.,4.8,17920.,4.8,0.,4.8,0.,4.8
1980-11-13 12:30:38.850 ,5,0,0.,4.8,17408.,4.8,0.,4.8,0.,4.8
1980-11-13 12:30:43.650 ,5,0,0.,4.8,17920.,4.8,0.,4.8,0.,4.8
1980-11-13 12:30:48.450 ,5,0,0.,4.8,18432.,4.8,0.,4.8,0.,4.8
1980-11-13 12:30:53.250 ,5,0,0.,4.8,16896.,4.8,0.,4.8,0.,4.8
1980-11-13 12:30:58.050 ,5,0,0.,4.8,17920.,4.8,0.,4.8,0.,4.8
1980-11-13 12:31:02.850 ,4,0,0.,4.8,17408.,4.8,0.,4.8,0.,4.8